Madigan Hospital, WA

2:06 AM PDT on September 30, 2016 (GMT -0700)
Gray Army Air Field

Weather History for KGRF - November, 2012

Change the Weather History Date:

Friday, November 30, 2012

  Actual Average Record
Temperature  
Mean Temperature 50 °F -  
Max Temperature 57 °F 46 °F 57 °F (2012)
Min Temperature 43 °F 34 °F 16 °F (2014)
Degree Days  
Heating Degree Days 15    
Moisture  
Dew Point 47 °F    
Average Humidity 90    
Maximum Humidity 100    
Minimum Humidity 62    
Precipitation  
Precipitation 1.17 in - - ()
Sea Level Pressure  
Sea Level Pressure 29.42 in    
Wind  
Wind Speed 7 mph (SSE)    
Max Wind Speed 22 mph    
Max Gust Speed 33 mph    
Visibility 8 miles    
Events Rain    
Averages and records for this station are not official NWS values.
T = Trace of Precipitation, MM = Missing Value Source: NWS Daily Summary

Daily Weather History Graph

Daily Weather History Graph

Search for Another Location

Airport or City:

Trip Planner

Search our weather history database for the weather conditions in past years. The results will help you decide how hot, cold, wet, or windy it might be!

Date:

Astronomy

Nov. 30, 2012 Rise Set
Actual Time 7:35 AM PST 4:23 PM PST
Civil Twilight 7:00 AM PST 4:57 PM PST
Nautical Twilight 6:22 AM PST 5:35 PM PST
Astronomical Twilight 5:45 AM PST 6:12 PM PST
Moon 6:23 PM PST 9:10 AM PST
Length of Visible Light 9h 57m
Length of Day
8h 47m
Waning Gibbous, 96% of the Moon is Illuminated
Nov 30
Waning Gibbous
Dec 6
Last Quarter
Dec 13
New
Dec 19
First Quarter
Dec 28
Full

Hourly Weather History & Observations

Time (PST) Temp. Windchill Dew Point Humidity Pressure Visibility Wind Dir Wind Speed Gust Speed Precip Events Conditions
12:58 AM 45.9 °F - 45.7 °F 99% 29.44 in 8.0 mi South 2.3 mph - 0.10 in Rain Light Rain
1:10 AM 46.4 °F - 46.4 °F 100% 29.42 in 10.0 mi ESE 1.2 mph - N/A   Overcast
1:58 AM 44.6 °F - 44.2 °F 99% 29.42 in 10.0 mi Calm Calm - 0.01 in   Mostly Cloudy
2:42 AM 46.4 °F - 44.6 °F 93% 29.40 in 10.0 mi NW 1.2 mph - N/A   Light Drizzle
2:58 AM 45.9 °F - 45.5 °F 99% 29.42 in 10.0 mi SSW 2.3 mph - 0.00 in Rain Light Rain
3:19 AM 46.4 °F - 44.6 °F 93% 29.39 in 10.0 mi ENE 1.2 mph - N/A   Overcast
3:35 AM 44.6 °F - 44.6 °F 100% 29.39 in 10.0 mi Calm Calm - N/A Rain Light Rain
3:45 AM 46.4 °F - 46.4 °F 100% 29.39 in 10.0 mi ENE 1.2 mph - N/A   Mostly Cloudy
3:58 AM 45.7 °F - 45.3 °F 99% 29.39 in 10.0 mi ENE 1.2 mph - 0.02 in   Mostly Cloudy
4:58 AM 44.6 °F 42.2 °F 44.4 °F 99% 29.39 in 10.0 mi NNE 4.6 mph - N/A   Overcast
5:54 AM 44.6 °F - 42.8 °F 93% 29.37 in 10.0 mi South 2.3 mph - N/A   Light Drizzle
5:58 AM 43.9 °F - 43.7 °F 99% 29.39 in 10.0 mi South 2.3 mph - 0.00 in Rain Light Rain
6:07 AM 44.6 °F - 44.6 °F 100% 29.37 in 10.0 mi SSE 2.3 mph - N/A   Mostly Cloudy
6:58 AM 47.7 °F - 46.2 °F 95% 29.39 in 10.0 mi SE 10.4 mph - 0.00 in   Mostly Cloudy
7:58 AM 50.9 °F - 46.2 °F 84% 29.42 in 10.0 mi SSE 12.7 mph - N/A   Mostly Cloudy
8:58 AM 52.9 °F - 45.7 °F 77% 29.42 in 10.0 mi SE 12.7 mph - N/A   Mostly Cloudy
9:58 AM 54.5 °F - 44.6 °F 69% 29.43 in 10.0 mi SSE 13.8 mph - N/A   Mostly Cloudy
10:58 AM 56.1 °F - 44.8 °F 66% 29.43 in 10.0 mi SSE 21.9 mph 33.4 mph N/A   Mostly Cloudy
11:58 AM 56.7 °F - 44.4 °F 64% 29.42 in 10.0 mi SSE 20.7 mph 29.9 mph N/A   Mostly Cloudy
12:58 PM 57.0 °F - 44.2 °F 62% 29.42 in 10.0 mi SSE 20.7 mph 29.9 mph N/A   Mostly Cloudy
1:13 PM 57.2 °F - 44.6 °F 63% 29.42 in 10.0 mi SSE 21.9 mph 28.8 mph N/A Rain Light Rain
1:33 PM 55.4 °F - 46.4 °F 72% 29.42 in 10.0 mi SSE 17.3 mph 26.5 mph N/A   Mostly Cloudy
1:58 PM 55.8 °F - 45.5 °F 68% 29.44 in 10.0 mi SSE 16.1 mph 25.3 mph 0.01 in   Mostly Cloudy
2:17 PM 55.4 °F - 46.4 °F 72% 29.42 in 10.0 mi SSE 16.1 mph 28.8 mph N/A   Light Drizzle
2:45 PM 53.6 °F - 48.2 °F 82% 29.42 in 10.0 mi South 10.4 mph - N/A   Mostly Cloudy
2:58 PM 53.4 °F - 47.3 °F 80% 29.44 in 10.0 mi South 10.4 mph 17.3 mph 0.01 in   Mostly Cloudy
3:05 PM 53.6 °F - 46.4 °F 77% 29.43 in 10.0 mi South 9.2 mph - N/A   Light Drizzle
3:58 PM 52.2 °F - 48.7 °F 88% 29.44 in 9.0 mi South 6.9 mph - 0.03 in Rain Light Rain
4:25 PM 51.8 °F - 50.0 °F 94% 29.44 in 7.0 mi SSW 8.1 mph - N/A Rain Light Rain
4:30 PM 51.8 °F - 48.2 °F 88% 29.45 in 2.5 mi South 12.7 mph 28.8 mph N/A Rain Rain
4:35 PM 50.0 °F - 48.2 °F 94% 29.45 in 2.0 mi South 12.7 mph 28.8 mph N/A Rain Light Rain
4:40 PM 50.0 °F - 48.2 °F 94% 29.44 in 6.0 mi SSW 11.5 mph 24.2 mph N/A Rain Light Rain
4:45 PM 50.0 °F - 48.2 °F 94% 29.44 in 7.0 mi SSW 11.5 mph 16.1 mph N/A Rain Light Rain
4:58 PM 50.7 °F - 48.7 °F 93% 29.46 in 9.0 mi SW 8.1 mph - 0.23 in Rain Light Rain
5:31 PM 50.0 °F - 48.2 °F 94% 29.45 in 8.0 mi SW 10.4 mph - N/A Rain Light Rain
5:51 PM 50.0 °F - 48.2 °F 94% 29.46 in 4.0 mi South 9.2 mph 17.3 mph N/A Rain Light Rain
5:58 PM 49.1 °F - 47.1 °F 93% 29.48 in 5.0 mi South 9.2 mph - 0.15 in Rain Light Rain
6:40 PM 48.2 °F - 46.4 °F 93% 29.45 in 10.0 mi South 4.6 mph - N/A   Overcast
6:44 PM 48.2 °F - 46.4 °F 93% 29.45 in 10.0 mi SSE 4.6 mph - N/A   Light Drizzle
6:58 PM 48.2 °F - 46.8 °F 95% 29.47 in 10.0 mi SSE 3.5 mph - 0.05 in   Light Drizzle
7:03 PM 48.2 °F - 46.4 °F 93% 29.44 in 10.0 mi ESE 3.5 mph - N/A   Light Drizzle
7:58 PM 47.7 °F - 47.5 °F 99% 29.45 in 7.0 mi SSE 2.3 mph - 0.09 in Rain Light Rain
8:58 PM 48.6 °F - 48.2 °F 99% 29.43 in 5.0 mi East 5.8 mph - 0.13 in Rain Light Rain
9:48 PM 48.2 °F - 48.2 °F 100% 29.40 in 5.0 mi East 4.6 mph - N/A Rain Light Rain
9:58 PM 48.9 °F - 48.4 °F 98% 29.42 in 6.0 mi ESE 5.8 mph - 0.09 in Rain Light Rain
10:16 PM 48.2 °F - 48.2 °F 100% 29.41 in 4.0 mi SE 4.6 mph - N/A Rain Rain
10:26 PM 48.2 °F - 48.2 °F 100% 29.41 in 5.0 mi South 4.6 mph - N/A Rain Light Rain
10:36 PM 48.2 °F - 48.2 °F 100% 29.41 in 3.0 mi South 6.9 mph - N/A Rain Heavy Rain
10:41 PM 50.0 °F - 48.2 °F 94% 29.41 in 4.0 mi SSE 9.2 mph - N/A Rain Rain
10:51 PM 50.0 °F - 48.2 °F 94% 29.40 in 9.0 mi SE 10.4 mph - N/A Rain Light Rain
10:58 PM 49.6 °F - 48.6 °F 96% 29.40 in 9.0 mi SSE 19.6 mph 25.3 mph 0.24 in Rain Light Rain
11:28 PM 50.0 °F - 46.4 °F 87% 29.41 in 10.0 mi SSE 13.8 mph 20.7 mph N/A   Overcast
11:58 PM 49.6 °F - 46.9 °F 90% 29.42 in 10.0 mi SSE 10.4 mph - 0.01 in   Mostly Cloudy